Regional Weather Roundup
Issued by NWS

Home | Current Version | Previous Version | Graphics & Text | Print | Product List | Glossary On
Versions: 1 2 3 4 5 6 7 8 9 10 11 12 13 14 15 16 17 18 19 20 21 22 23 24 25 26 27 28 29 30 31 32 33 34 35 36 37 38 39 40 41 42 43 44 45 46 47 48 49
000
ASUS45 KSLC 301410
RWRUT

UTAH REGIONAL WEATHER ROUNDUP
NATIONAL WEATHER SERVICE SALT LAKE CITY UT
800 AM MDT TUE SEP 30 2014

UTZ001>011-023>025-301500-

NORTHERN UTAH

CITY           SKY/WX    TMP DP  RH WIND       PRES   REMARKS
HILL AFB       LGT RAIN  50  49  95 S10       29.97S FOG
LOGAN          NOT AVBL
OGDEN          LGT RAIN  52  49  89 S9        29.96S
PROVO AIRPORT  MOCLDY    50  43  76 SE3       30.00S
SALT LAKE CITY MOCLDY    53  49  86 S6        29.97R
VERNAL         PTCLDY    43  41  93 NW3       29.97S
WENDOVER       CLOUDY    52  39  62 W6        29.96F
HEBER CITY     LGT RAIN  45  43  93 CALM      30.00S
WEST JORDAN    CLOUDY    52  48  87 S6        29.99R

$$

UTZ012>022-026-027-301500-

SOUTHERN UTAH

CITY           SKY/WX    TMP DP  RH WIND       PRES   REMARKS
BRYCE CANYON   CLEAR     34  33  96 W6        30.11S WCI  29
CEDAR CITY     PTCLDY    48  38  68 SE8       30.04R
MILFORD        PTCLDY    42  39  89 S6        30.02R
MOAB/CYNLANDS  CLOUDY    49  46  90 CALM      29.98S
PRICE          CLOUDY    48  43  82 CALM      30.01S
ST GEORGE      CLOUDY    55  41  58 E6        29.99R
KANAB            N/A     45  43  93 CALM      30.08R

$$

REGIONAL REPORTS     COLORADO/ARIZONA

CITY           SKY/WX    TMP DP  RH WIND       PRES   REMARKS
CRAIG, CO      CLOUDY    45  38  76 SW6       30.00R
GRAND JUNCTION CLOUDY    46  42  86 E8        30.01R
RIFLE          CLOUDY    42  40  92 CALM      30.03R
MONTROSE       PTCLDY    40  39  97 CALM      30.06R
CORTEZ         CLEAR     40  38  93 NE3       30.06S
PAGE, AZ       NOT AVBL
GRAND CANYON   CLEAR     34  32  92 CALM      30.11S
KINGMAN        NOT AVBL
FLAGSTAFF      PTCLDY    34  31  88 CALM      30.13R

$$

REGIONAL REPORTS    NEVADA/IDAHO/WYOMING

CITY           SKY/WX    TMP DP  RH WIND       PRES   REMARKS
LAS VEGAS, NV  CLEAR     66  38  35 S8        29.89R
ELY            CLOUDY    37  35  92 S10       30.09R WCI  30
ELKO           CLOUDY    40  38  93 CALM      30.01S
POCATELLO, ID  CLOUDY    51  49  92 SW8       29.93S
BURLEY         CLOUDY    50  45  83 SW12      29.92F
EVANSTON, WY   LGT RAIN  42  40  92 SW17      29.99S FOG
ROCK SPRINGS   CLOUDY    42  37  82 W14       29.95S

$$


USA.gov is the U.S. government's official web portal to all federal, state and local government web resources and services.